Showing default

SUPERVIEW NEO-2 04, 62080

Orbit data source: Space-Track

SUPERVIEW NEO-2 04, 62080 is a payload satellite owned by Siwei (CN) in SSO that was launched on Sun, 24 Nov 2024 UTC via a CHANG ZHENG 2C launch vehicle from the Jiuquan Satellite Launch Center, China (JSC). Payloads include a variety of satellites, spacecraft, and rockets equipped with specific instruments for various scientific and technological missions. These include communications satellites like Starlink; space stations such as the ISS; scientific satellites like the Hubble; Earth observation satellites from companies like Planet Labs, Umbra, and HawkEye 360; GPS; miniature CubeSats for education and research; and military/defense satellites.

Loading next visibility...
SUPERVIEW NEO-2 04 details
Identifier
62080, 2024-218C
Orbit
SSO
Last TLE update2 days ago
Origin
Flag of CNSiwei (CN / PRC)
ManufacturerDFH
MissionOperational spacecraft
Bus & MotorSIWEI, Unknown motor
Mass600 kg wet, ~500 kg dry
Launch date (UTC)
2024-11-24 (3 weeks ago)
Launch vehicle
CHANG ZHENG 2C
Launch site
Jiuquan Satellite Launch Center, China (JSC)
Object type
Payload
Rocket body
Debris
Shape & HBRUnknown
Radar Cross SectionLarge (>1 m²)

Expand to show TLE details & history

TLE from 2 days ago
0 SUPERVIEW NEO-2 04
1 62080U 24218C   24346.62365491  .00000517  00000-0  27386-4 0  9991
2 62080  97.4393 350.8784 0001740  87.6374 272.5060 15.19722620  2521
Epoch: 2024-12-11T14:58Z
Definitive object data (Epoch: 2024-12-11T14:58:03.784Z)
Latitude-0.00001°
Longitude45.54696°
Altitude509.715 km
Speed7.609 km/s
True Right ascension23h 23m 30s
True Declination0° 00' 00"
Sunlit
Object was in daylight at TLE epoch
Visualization TLE readout
Latitude-82.56012°
Longitude143.84754°
Altitude536.247 km
Speed7.593 km/s
Apparent Right ascension08h 02m 29s
Apparent Declination-62° 38' 36"
Sunlit
Object is in daylight
Visualization observer readout
Local Sidereal Time20:24:26
Azimuth173.533° S
Elevation-67.035°
Doppler factor1
Orbital elements
Apogee altitude504.843 km
Perigee altitude502.448 km
Semi-major axis6,881.783 km
Eccentricity0.000174
Inclination97.4393°
RAAN350.8784°
Arg. of periapsis87.6374°
True anomaly272.48608°
Mean anomaly272.506°
Eccentric anomaly272.49604°
Mean motion3.80182 °/min
BSTAR0.000027386
Orbital period94.69 mins
Loading maneuver chart data...
Loading historical data...
Loading historical data...
Loading historical data...
Loading historical data...
Loading historical data...
Loading historical data...
Loading historical data...
Other satellites on launch #218 in the year 2024 (2024-11-24 UTC)

SUPERVIEW NEO-2 04 Visibility forecast

Observer location: undefined°, undefined

Span
Click to sort rows by Start time (UTC) header in descending order
Start Az.
Max El. time (UTC)
Max El. Az.
Max El.
End time (UTC)
End Az.
6 mins2024-12-13 23:59:37.483Z131.874° SE2024-12-14 00:02:37.483Z64.696° ENE27.7°2024-12-14 00:05:37.483Z9.021° NNE
5 mins2024-12-14 13:04:37.483Z32.094° NE2024-12-14 13:06:37.483Z87.129° E36.672°2024-12-14 13:09:37.483Z171.592° S
|